Wind_Speed
34 35 36 35 36 35 34 34 35 35 36 36 36 36 36 36 37 37 37 36 37 38 39 40 39 39 39 38 38 37 36 36 36 36 36 37 38 38
33 33 34 34 35 36 35 35 35 35 35 36 37 38 38 37 37 38 38 38 38 39 38 38 38 38 38 37 37 37 36 36 35 35 36 37 37 36
32 33 33 33 34 35 35 35 35 35 35 35 35 36 37 37 37 37 37 36 37 37 37 37 36 37 37 36 36 35 35 34 34 34 35 34 33 33
31 32 32 32 33 34 34 34 34 35 35 35 34 33 33 34 34 33 33 34 34 34 34 34 33 33 33 33 33 33 32 32 32 32 32 31 30 30
29 29 30 29 30 31 31 31 32 32 33 33 32 32 32 32 31 31 31 31 31 31 32 31 30 30 31 31 31 31 31 31 31 30 29 29 28 28
27 26 26 27 27 27 28 28 29 29 29 30 30 30 29 29 28 28 28 28 29 29 28 28 28 28 29 29 29 29 29 29 29 28 28 27 26 26
24 24 24 25 26 25 26 25 25 26 26 26 27 27 27 26 26 26 26 27 27 27 26 26 26 27 27 27 27 27 26 26 25 25 24 24 24 23
21 22 22 22 22 23 23 22 22 22 22 23 23 23 23 24 24 24 24 24 24 24 24 25 25 25 25 25 24 23 23 23 23 22 21 21 21 21
19 19 20 21 21 20 19 20 20 20 20 20 20 20 20 20 21 21 21 22 22 22 22 23 23 22 21 21 21 20 20 20 20 20 20 19 19 19
18 17 17 17 17 17 17 17 17 17 17 17 17 17 17 17 17 17 18 19 19 19 19 19 19 18 19 18 17 18 18 18 18 18 17 18 18 18
14 13 13 13 13 13 13 12 12 12 13 14 14 14 14 14 15 15 15 16 16 16 17 17 17 17 16 16 15 16 16 16 16 16 16 17 17 17
9 10 10 9 8 9 9 8 8 8 9 10 11 11 12 13 13 14 14 14 14 15 15 14 14 14 14 14 14 14 15 15 15 15 15 16 16 16
5 5 5 4 4 5 5 5 6 7 7 8 8 9 11 11 12 12 12 12 12 12 12 12 12 12 12 12 12 13 13 13 14 14 15 15 15 15
1 2 3 3 3 3 4 4 4 5 6 7 7 7 8 9 10 10 10 10 10 9 9 9 9 9 10 11 11 11 12 12 13 13 14 14 14 14
0 0 2 1 1 1 1 3 4 4 5 5 5 6 6 7 8 7 7 7 6 7 7 8 8 9 9 9 10 10 11 11 12 12 12 13 13 13
2 2 3 2 1 2 1 2 2 3 4 4 5 5 5 5 4 4 5 5 6 6 6 7 7 7 7 8 8 9 10 11 12 12 13 13 13 14
4 5 4 4 4 4 5 4 4 4 4 4 5 5 5 5 4 4 5 5 5 5 5 5 6 6 7 7 8 9 11 12 13 13 13 14 14 15
7 7 7 7 7 7 7 6 6 6 6 6 6 6 5 5 5 6 6 5 5 5 5 5 6 6 7 8 10 11 12 13 14 14 14 15 16 16
10 9 9 9 8 8 8 7 7 7 7 7 7 7 6 7 7 6 6 6 5 6 6 6 7 8 9 10 11 13 13 14 15 15 16 16 17 17
12 11 11 10 9 9 8 8 8 8 8 7 7 7 7 7 7 7 7 7 7 7 7 8 9 10 11 12 13 14 15 15 16 17 17 17 18 18
13 13 13 12 11 10 9 9 9 8 8 8 8 8 8 8 8 8 8 8 8 8 9 10 11 12 13 14 14 15 16 17 18 18 18 19 19 20
14 14 13 13 12 11 11 10 9 9 9 9 8 8 8 8 9 9 9 9 10 10 11 12 13 14 15 15 16 16 17 18 19 19 20 21 22 22
14 13 13 13 12 12 11 11 10 10 10 9 9 9 9 9 9 10 10 11 12 12 13 14 15 16 17 17 18 18 18 19 19 20 21 22 23 24
Wind_Direction
265 263 263 265 265 265 265 266 266 267 267 266 268 268 268 268 268 269 270 272 272 273 275 277 279 281 282 284 285 286 286 286 287 286 287 287 288 287
266 265 264 266 266 265 265 265 265 266 267 267 268 269 269 269 268 269 271 273 274 275 277 278 280 281 281 284 286 285 286 288 290 290 289 289 288 288
267 266 266 265 265 265 265 266 266 266 267 268 269 270 270 269 268 271 274 274 276 277 277 278 279 280 281 282 283 285 288 290 291 290 289 290 290 289
269 267 267 267 266 266 266 267 267 267 267 269 270 271 270 270 270 270 271 275 275 276 277 278 280 281 282 283 285 286 289 289 289 289 288 289 289 289
271 269 268 268 266 265 266 267 267 268 267 269 270 271 270 271 270 269 271 273 274 276 277 279 282 284 285 286 286 287 287 287 287 287 288 289 290 292
271 269 268 266 266 265 265 266 267 268 269 270 271 273 273 273 272 273 275 274 274 276 279 283 285 285 285 286 285 286 287 287 287 287 288 289 291 294
269 268 267 266 267 266 267 267 268 269 270 271 272 273 272 272 274 276 277 276 277 280 281 282 283 284 284 284 285 286 287 288 288 289 290 292 293 295
272 271 270 268 268 270 270 270 270 271 272 272 273 273 272 272 273 274 275 277 280 280 279 280 281 283 284 285 288 288 288 288 291 294 295 296 296 296
272 270 269 268 268 271 273 274 273 272 273 274 273 274 273 272 272 273 275 277 278 279 279 281 283 284 285 286 288 291 292 293 296 297 298 297 298 299
271 269 268 266 265 267 270 271 270 270 272 271 271 272 271 273 275 276 276 277 278 280 280 282 283 284 286 288 291 293 295 296 298 298 298 299 300 301
271 266 263 263 264 263 264 264 266 266 265 268 271 273 273 274 276 276 275 275 278 281 283 285 285 286 288 290 293 296 299 300 300 300 300 300 302 304
264 260 260 259 260 259 261 264 266 271 271 269 274 275 277 278 278 276 274 275 279 281 281 284 285 288 290 293 296 299 301 303 304 304 303 304 305 306
259 254 248 246 252 258 265 270 277 282 284 285 286 282 281 282 284 284 283 282 281 282 282 284 286 288 292 295 299 302 303 306 307 307 307 308 309 309
254 250 233 225 237 254 272 282 296 301 300 298 301 300 297 296 296 291 286 284 283 285 286 289 291 294 296 300 302 304 307 310 311 311 312 313 313 313
106 140 180 175 187 267 284 304 308 314 319 318 315 311 309 308 304 297 296 300 300 298 297 299 300 301 302 304 306 310 312 315 317 318 317 316 316 317
89 104 103 89 76 57 43 14 5 -0 353 344 336 334 333 329 326 324 322 315 314 312 305 306 308 308 309 312 314 317 319 321 322 321 320 319 318 318
80 90 86 80 75 72 65 59 48 40 38 30 21 15 13 9 2 353 343 333 329 326 320 317 319 319 321 320 320 320 320 321 321 321 320 320 320 320
77 81 83 82 76 75 72 69 63 57 50 43 39 34 29 23 14 7 359 351 346 342 339 333 329 327 326 324 322 320 319 319 319 319 319 320 320 319
80 80 80 78 77 75 71 66 61 56 50 43 38 33 28 24 19 14 9 4 359 353 346 340 333 330 326 323 322 321 320 320 319 318 318 318 318 317
79 79 79 78 75 71 66 61 57 53 47 42 38 33 29 25 21 17 13 11 5 357 349 342 335 330 326 324 323 322 321 320 319 318 317 316 317 316
76 76 75 73 69 65 62 58 54 50 44 40 35 30 23 18 14 12 8 3 357 350 344 339 335 332 330 328 325 323 322 320 319 317 316 315 315 314
71 70 68 66 63 60 56 51 48 45 41 36 32 25 18 12 7 4 1 356 351 345 341 336 332 329 328 326 324 323 321 319 317 316 315 315 314 313
65 63 60 58 55 52 49 46 43 40 36 30 24 17 10 5 1 357 352 348 344 341 337 333 330 328 327 325 324 322 321 320 319 317 315 314 313 313
Height
5774 5775 5776 5777 5779 5780 5781 5782 5783 5784 5785 5786 5787 5788 5788 5789 5790 5790 5791 5791 5791 5791 5791 5791 5790 5790 5789 5788 5787 5786 5784 5783 5781 5780 5778 5776 5774 5772
5766 5766 5768 5769 5770 5771 5772 5773 5774 5776 5776 5777 5778 5779 5779 5779 5780 5781 5781 5781 5781 5782 5781 5781 5781 5780 5779 5778 5778 5776 5775 5773 5772 5770 5768 5766 5764 5762
5757 5758 5759 5760 5761 5762 5763 5764 5765 5766 5767 5767 5768 5769 5770 5770 5771 5771 5772 5772 5772 5772 5772 5772 5772 5771 5770 5769 5768 5767 5766 5764 5763 5761 5759 5757 5754 5752
5748 5749 5751 5751 5753 5754 5755 5756 5757 5758 5759 5759 5760 5760 5761 5761 5762 5762 5763 5763 5764 5763 5763 5763 5763 5762 5761 5760 5759 5758 5757 5755 5754 5752 5750 5748 5746 5743
5740 5741 5742 5743 5744 5746 5747 5747 5748 5749 5750 5751 5751 5752 5753 5753 5754 5754 5754 5755 5755 5755 5755 5754 5754 5753 5752 5752 5751 5749 5748 5747 5745 5743 5741 5739 5737 5735
5732 5733 5734 5735 5736 5738 5739 5740 5741 5741 5742 5742 5743 5744 5745 5745 5746 5746 5746 5747 5747 5747 5747 5746 5746 5745 5744 5743 5742 5741 5739 5738 5737 5735 5733 5731 5730 5728
5725 5726 5727 5728 5728 5730 5731 5732 5733 5734 5734 5735 5735 5736 5737 5738 5738 5738 5739 5739 5739 5740 5740 5739 5738 5737 5737 5735 5734 5733 5732 5730 5729 5727 5726 5724 5722 5721
5718 5719 5720 5721 5722 5723 5724 5725 5726 5727 5727 5728 5729 5729 5730 5731 5731 5732 5732 5732 5732 5733 5732 5732 5731 5730 5730 5728 5727 5726 5724 5723 5722 5720 5719 5717 5716 5714
5713 5713 5714 5715 5716 5717 5718 5719 5720 5721 5722 5723 5723 5724 5724 5725 5725 5725 5725 5726 5726 5726 5725 5725 5725 5724 5723 5722 5721 5720 5718 5717 5716 5714 5713 5712 5710 5709
5708 5709 5710 5710 5711 5712 5714 5714 5715 5716 5716 5717 5718 5718 5719 5719 5719 5719 5719 5720 5720 5720 5720 5719 5718 5718 5717 5716 5715 5714 5713 5712 5710 5709 5708 5707 5705 5703
5704 5705 5706 5706 5707 5708 5709 5710 5711 5711 5712 5713 5713 5713 5714 5714 5714 5714 5715 5715 5715 5715 5714 5714 5713 5713 5712 5711 5710 5709 5708 5707 5706 5704 5703 5702 5700 5699
5700 5701 5702 5703 5704 5705 5706 5707 5708 5708 5709 5709 5709 5710 5710 5710 5710 5710 5710 5710 5710 5710 5710 5709 5709 5708 5708 5707 5706 5705 5704 5703 5702 5700 5699 5698 5696 5694
5698 5699 5700 5701 5702 5703 5704 5705 5706 5706 5706 5706 5707 5707 5707 5707 5707 5707 5707 5707 5706 5706 5706 5706 5705 5705 5704 5703 5703 5702 5700 5699 5698 5696 5695 5693 5692 5690
5697 5698 5699 5700 5701 5702 5703 5703 5704 5704 5704 5704 5704 5704 5704 5704 5704 5704 5703 5703 5703 5703 5703 5702 5702 5701 5701 5700 5699 5698 5697 5696 5695 5693 5692 5690 5688 5687
5697 5697 5698 5699 5700 5701 5702 5702 5702 5703 5703 5703 5703 5703 5702 5702 5702 5701 5701 5701 5701 5701 5700 5700 5699 5699 5698 5697 5697 5696 5695 5693 5692 5690 5689 5687 5685 5683
5697 5698 5698 5699 5700 5701 5701 5702 5702 5702 5702 5702 5702 5701 5701 5701 5700 5700 5700 5700 5699 5699 5698 5698 5697 5697 5696 5695 5694 5693 5692 5691 5689 5688 5686 5684 5682 5680
5699 5699 5700 5700 5701 5701 5702 5702 5702 5702 5702 5702 5702 5701 5701 5700 5700 5699 5699 5699 5698 5698 5697 5697 5696 5695 5695 5694 5692 5691 5690 5688 5687 5685 5683 5681 5679 5677
5700 5701 5701 5702 5702 5703 5703 5703 5703 5703 5703 5703 5702 5702 5701 5700 5700 5699 5698 5698 5697 5697 5696 5696 5695 5694 5693 5692 5691 5689 5688 5686 5684 5682 5680 5678 5676 5673
5703 5703 5704 5704 5705 5705 5705 5705 5705 5705 5704 5704 5703 5702 5702 5701 5700 5700 5699 5698 5697 5696 5696 5695 5694 5693 5692 5690 5689 5687 5685 5683 5681 5679 5677 5674 5672 5670
5707 5707 5707 5707 5707 5707 5707 5707 5707 5706 5706 5705 5704 5704 5703 5702 5701 5700 5699 5698 5697 5696 5695 5694 5693 5691 5690 5688 5686 5684 5682 5680 5678 5675 5673 5670 5668 5666
5710 5710 5710 5710 5710 5710 5709 5709 5708 5708 5707 5707 5706 5705 5704 5703 5702 5701 5699 5698 5697 5696 5695 5693 5691 5689 5687 5686 5684 5681 5679 5676 5674 5672 5669 5667 5664 5661
5714 5714 5714 5713 5713 5712 5712 5711 5710 5710 5709 5708 5706 5705 5704 5703 5702 5701 5699 5698 5697 5695 5693 5692 5689 5687 5685 5683 5681 5679 5676 5673 5670 5667 5664 5662 5659 5656
5718 5718 5717 5717 5716 5715 5714 5713 5712 5711 5710 5709 5708 5706 5705 5704 5702 5701 5699 5697 5696 5694 5692 5690 5687 5685 5682 5680 5677 5675 5672 5669 5666 5664 5661 5657 5654 5651